Home > Weather > Vernier > Past weeks

Flag for Switzerland Past Weather in Vernier, Geneva, Switzerland — Yesterday and Last 2 Weeks

Now
66 °F

Scattered clouds.


Feels Like: 66 °F
Forecast: 52 / 78 °F
Wind: 3 mph from North

Location: Geneva Cointrin Airport

Current Time: May 26, 2016 at 8:36:57 PM

Latest Report: May 26, 2016 at 8:20 PM


Visibility: N/A

Pressure: 29.92 "Hg

Humidity: 56%

Dew Point: 50 °F

Location of VernierLocation

Past Weather in Vernier — Graph

°F

Vernier Temperature Yesterday

Maximum temperature yesterday: 63 °F (at 2:20 PM)
Minimum temperature yesterday: 41 °F (at 5:50 AM)
Average temperature yesterday: 54 °F

High & Low Weather Summary for the Past Weeks

 TemperatureHumidityPressure
High79 °F (May 21, 5:20 PM)100% (May 12, 4:50 AM)30.21 "Hg (May 12, 4:50 AM)
Low36 °F (May 16, 5:50 AM)31% (May 18, 4:20 PM)29.56 "Hg (May 11, 7:20 PM)
Average55 °F72%29.96 "Hg
* Reported May 11 7:20 PM — May 26 7:20 PM, Vernier, Weather by CustomWeather, © 2016

Note: Actual official high and low records may vary slightly from our data, if they occured in-between our weather recording intervals... More about our weather records

Advertising

Vernier Weather History for the Previous 24 Hours

Scroll right to see more
 ConditionsComfort  
Time TempWeatherWind HumidityBarometerVisibility
7:20 PM
Thu, May 26
68 °FPartly sunny.2 mph56%29.92 "HgN/A
6:50 PM68 °FBroken clouds.5 mph56%29.92 "HgN/A
6:20 PM70 °FBroken clouds.5 mph50%29.95 "HgN/A
5:50 PM72 °FBroken clouds.3 mph50%29.95 "HgN/A
5:20 PM70 °FBroken clouds.3 mph57%29.95 "HgN/A
4:50 PM72 °FBroken clouds.3 mph53%29.95 "HgN/A
3:50 PM68 °FBroken clouds.5 mph56%29.98 "HgN/A
3:20 PM66 °FBroken clouds.6 mph56%29.98 "HgN/A
2:50 PM68 °FBroken clouds.3 mph56%29.98 "HgN/A
2:20 PM68 °FBroken clouds.2 mph56%29.98 "HgN/A
1:50 PM68 °FBroken clouds.2 mph60%30.01 "HgN/A
1:20 PM66 °FBroken clouds.5 mph64%30.01 "HgN/A
12:50 PM66 °FBroken clouds.2 mph68%30.01 "HgN/A
12:20 PM64 °FBroken clouds.3 mph64%30.01 "HgN/A
11:50 AM63 °FPartly sunny.2 mph73%30.01 "HgN/A
11:20 AM61 °FPartly sunny.2 mph88%30.01 "HgN/A
10:50 AM59 °FBroken clouds.3 mph88%30.01 "HgN/A
10:20 AM57 °FScattered clouds.2 mph94%30.04 "Hg5 mi
9:50 AM55 °FFog.2 mph94%30.04 "Hg3 mi
9:20 AM54 °FFog.2 mph94%30.04 "Hg3 mi
8:50 AM54 °FFog.2 mph94%30.01 "Hg3 mi
8:20 AM52 °FFog.2 mph100%30.04 "Hg3 mi
7:50 AM52 °FPartly sunny.1 mph94%30.01 "Hg1 mi
7:20 AM50 °FPartly sunny.1 mph100%30.04 "Hg1 mi
6:50 AM50 °FPassing clouds.1 mph100%30.04 "Hg1 mi
6:20 AM50 °FFog.2 mph94%30.01 "Hg0 mi
5:50 AM50 °FPassing clouds.1 mph100%30.01 "Hg1 mi
4:50 AM50 °FPassing clouds.2 mph94%30.01 "Hg1 mi
4:20 AM50 °FPassing clouds.1 mph94%30.01 "Hg1 mi
3:50 AM50 °FFog.1 mph94%30.01 "Hg0 mi
2:20 AM52 °FFog.2 mph94%30.01 "Hg0 mi
1:50 AM52 °FFog.2 mph94%30.01 "Hg0 mi
1:20 AM52 °FFog.2 mph94%30.01 "Hg0 mi
12:50 AM52 °FFog.2 mph94%30.01 "Hg0 mi
12:20 AM52 °FPassing clouds.1 mph94%30.01 "Hg2 mi
11:50 PM
Wed, May 25
52 °FFog.2 mph100%30.01 "Hg1 mi
11:20 PM54 °FFog.1 mph94%30.01 "Hg2 mi
10:50 PM55 °FPassing clouds.2 mph88%30.01 "HgN/A
10:20 PM55 °FPartly cloudy.3 mph94%30.01 "HgN/A
9:50 PM55 °FBroken clouds.2 mph94%30.01 "HgN/A
9:20 PM55 °FBroken clouds.1 mph94%29.98 "HgN/A
8:50 PM57 °FPartly sunny.1 mph88%29.98 "HgN/A
8:20 PM57 °FScattered showers. Partly sunny.5 mph94%29.98 "HgN/A
Weather by CustomWeather, © 2016

See weather overviewHow to use our weather pages